Погода в Беллуно

Италия     46°08′27″N   12°12′44″E
темп.,
°C
ветер,
м/с
пор.,
м/с
влажн.,
%
обл.,
%
осадки,
мм/ч
давл.,
гПа
погр.,
м
26 мая, чт
чт2623:00+11с229136 0.7 101943
02:00+10с339028 0.8 102055
05:00+9с339037 0.0 102043
08:00+14ссв11765 0.0 1021190
11:00+18ю326562 0.2 10211224
14:00+17ю227467 1.1 1022780
17:00+17ю228185 1.3 1021348
20:00+14вюв01905 3.5 102112
27 мая, пт
пт2723:00+12с22948 0.7 102329
02:00+11с229296 0.9 102235
05:00+10с2292100 0.2 102133
08:00+14с1282100 0.2 1020142
11:00+19ю326499 0.1 10191129
14:00+19ю326891 1.3 10171062
17:00+18ю3279100 1.5 1016664
20:00+15ю118779 6.4 101511
28 мая, сб
сб2823:00+12с33935 2.9 101645
02:00+11с339217 3.3 101554
05:00+10с349120 0.0 101365
08:00+13ссв248284 0.2 1012189
11:00+16вюв126694 0.2 1011708
14:00+15юв1180100 1.4 1011376
17:00+12ююв1290100 1.8 1011224
20:00+9с3785100 3.1 1013318
29 мая, вс
вс2923:00+7ссв2590100 0.9 1015247
02:00+7всв1293100 2.8 101494
05:00+6с2493100 2.3 1013232
08:00+7с2384100 2.6 1013622
11:00+11юв125790 0.1 10101348
14:00+12ю326585 0.3 10091265
17:00+9ю238589 0.3 1009557
20:00+9ю128781 0.4 1009361
30 мая, пн
пн3023:00+8ю009261 0.1 101056
02:00+6ссз119654 0.1 101011
05:00+5с22958 0.0 101020
08:00+9ю01768 0.0 1009443
11:00+12ю326684 0.3 10101254
14:00+11ю227299 0.7 1011965
17:00+12ююв227573 0.3 1012809
20:00+10ю129156 0.5 1013125